This is the latest recevied weather packets stored in our database for station/object HK4RAU-16. If no packets are shown the sender has not sent any weather packets the latest 10 day(s).
| Time | Temp. | Humidity | Pressure | Rain* | Wind** | Luminosity | Snow |
|---|---|---|---|---|---|---|---|
| 1777698585 | 19.44° C | 88% | 1016 hPa | 0.51 mm | - | - | - |
| 1777697950 | 20° C | 88% | 1016 hPa | 1.52 mm | - | - | - |
| 1777697645 | 20.56° C | 88% | 1016 hPa | 1.52 mm | - | - | - |
| 1777697344 | 21.11° C | 88% | 1016 hPa | 1.52 mm | - | - | - |
| 1777697029 | 21.67° C | 88% | 1016 hPa | 4.32 mm | - | - | - |
| 1777696725 | 21.67° C | 88% | 1016 hPa | 4.32 mm | - | - | - |
| 1777696401 | 16.67° C | 88% | 1016 hPa | 3.56 mm | - | - | - |
| 1777696093 | 16.67° C | 88% | 1016 hPa | 3.56 mm | - | - | - |
| 1777695782 | 17.22° C | 88% | 1016 hPa | 3.3 mm | - | - | - |
| 1777695475 | 17.78° C | 88% | 1016 hPa | 2.79 mm | - | - | - |
| 1777695174 | 18.33° C | 88% | 1016 hPa | 2.54 mm | - | - | - |
| 1777694860 | 18.89° C | 88% | 1016 hPa | 2.03 mm | - | - | - |
| 1777694552 | 19.44° C | 88% | 1016 hPa | 1.27 mm | - | - | - |
| 1777694251 | 20° C | 88% | 1016 hPa | 0 mm | - | - | - |
| 1777693944 | 20.56° C | 88% | 1016 hPa | 0 mm | - | - | - |
| 1777693643 | 21.11° C | 88% | 1016 hPa | 0 mm | - | - | - |
| 1777693341 | 21.67° C | 88% | 1016 hPa | 0 mm | - | - | - |
| 1777693034 | 21.67° C | 88% | 1016 hPa | 0 mm | - | - | - |
| 1777692732 | 16.11° C | 86% | 1016 hPa | 0 mm | - | - | - |
| 1777692426 | 16.67° C | 86% | 1015 hPa | 0 mm | - | - | - |
| 1777692114 | 17.22° C | 86% | 1015 hPa | 0 mm | - | - | - |
| 1777691812 | 17.78° C | 86% | 1015 hPa | 0 mm | - | - | - |
| 1777691511 | 17.78° C | 86% | 1015 hPa | 0 mm | - | - | - |
| 1777691201 | 18.33° C | 86% | 1015 hPa | 0 mm | - | - | - |
| 1777690884 | 16.11° C | 87% | 1015 hPa | 0 mm | - | - | - |
* Rain latest hour (hover to see other rain measurements)
** Current wind speed in m/s (hover to see current wind gust speed)